This is the latest recevied weather packets stored in our database for station/object KD5VOO. If no packets are shown the sender has not sent any weather packets the latest 1 day(s).
| Time | Temp. | Humidity | Pressure | Rain* | Wind** | Luminosity | Snow |
|---|---|---|---|---|---|---|---|
| 1778097746 | 30.56° C | 59% | 1008.2 hPa | 0 mm | - | 146 W/m² | - |
| 1778097139 | 30° C | 58% | 1008.2 hPa | 0 mm | - | 105 W/m² | - |
| 1778096836 | 30° C | 58% | 1008.5 hPa | 0 mm | - | 199 W/m² | - |
| 1778095624 | 29.44° C | 59% | 1008.8 hPa | 0 mm | - | 93 W/m² | - |
| 1778094411 | 29.44° C | 59% | 1009.2 hPa | 0 mm | - | 113 W/m² | - |
| 1778092592 | 29.44° C | 59% | 1009.9 hPa | 0 mm | - | 138 W/m² | - |
| 1778089562 | 28.33° C | 61% | 1010.5 hPa | 0 mm | - | 104 W/m² | - |
| 1778088652 | 27.78° C | 61% | 1010.5 hPa | 0 mm | - | 154 W/m² | - |
| 1778087743 | 27.78° C | 61% | 1010.5 hPa | 0 mm | - | 64 W/m² | - |
| 1778087441 | 27.78° C | 62% | 1010.9 hPa | 0 mm | - | 99 W/m² | - |
| 1778087138 | 27.78° C | 62% | 1010.5 hPa | 0 mm | - | 83 W/m² | - |
| 1778085320 | 27.78° C | 60% | 1010.5 hPa | 0 mm | - | 108 W/m² | - |
| 1778083804 | 27.22° C | 60% | 1010.5 hPa | 0 mm | - | 61 W/m² | - |
| 1778079972 | 25.56° C | 61% | 1010.2 hPa | 0 mm | - | 35 W/m² | - |
| 1778079669 | 25.56° C | 61% | 1010.2 hPa | 0 mm | - | 21 W/m² | - |
| 1778079366 | 25.56° C | 61% | 1010.2 hPa | 0 mm | - | 20 W/m² | - |
| 1778079063 | 25.56° C | 61% | 1009.9 hPa | 0 mm | - | 33 W/m² | - |
| 1778077550 | 25° C | 62% | 1009.9 hPa | 0 mm | - | 42 W/m² | - |
| 1778077248 | 25° C | 63% | 1009.9 hPa | 0 mm | - | 40 W/m² | - |
| 1778076341 | 24.44° C | 64% | 1009.9 hPa | 0 mm | - | 35 W/m² | - |
| 1778075431 | 24.44° C | 66% | 1009.5 hPa | 0 mm | - | 27 W/m² | - |
| 1778073915 | 23.33° C | 66% | 1009.5 hPa | 0 mm | - | 16 W/m² | - |
| 1778073309 | 23.33° C | 66% | 1009.2 hPa | 0 mm | - | 16 W/m² | - |
| 1778071493 | 22.78° C | 66% | 1009.2 hPa | 0 mm | - | 10 W/m² | - |
| 1778071191 | 22.78° C | 66% | 1008.8 hPa | 0 mm | - | 5 W/m² | - |
* Rain latest hour (hover to see other rain measurements)
** Current wind speed in m/s (hover to see current wind gust speed)